Regional Weather Roundup
Issued by NWS

Home | Current Version | Previous Version | Graphics & Text | Print | Product List | Glossary On
Versions: 1 2 3 4 5 6 7 8 9 10 11 12 13 14 15 16 17 18 19 20 21 22 23 24 25 26 27
000
ASUS45 KPSR 252210
RWRAZ

ARIZONA HOURLY REGIONAL WEATHER ROUNDUP
NATIONAL WEATHER SERVICE PHOENIX AZ
300 PM MST WED MAY 25 2016

NOTE: FAIR INDICATES FEW OR NO CLOUDS BELOW 12,000 FEET WITH NO
SIGNIFICANT WEATHER AND/OR OBSTRUCTIONS TO VISIBILITY.

AZZ001>003-036-252300-
NORTHWEST ARIZONA

CITY           SKY/WX    TMP DP  RH WIND       PRES   REMARKS
BULLHEAD CITY  SUNNY     86  19   8 SW13G25   29.86F
KINGMAN        SUNNY     77  19  11 SW26G36   29.95F
$$

AZZ004>008-015-016-018-252300-
NORTH CENTRAL ARIZONA

CITY           SKY/WX    TMP DP  RH WIND       PRES   REMARKS
GRAND CANYON   MOSUNNY   67  18  15 S9G22     30.07F
WILLIAMS       MOSUNNY   64  16  15 SW17G32   30.15F
PRESCOTT       MOSUNNY   69  22  16 SW12G29   30.03F
FLAGSTAFF      SUNNY     61  13  15 SW22G30   30.10F
PAYSON         SUNNY     72  19  14 S9G22     30.07F
PAGE           SUNNY     78  13   8 E6        29.94F
$$

AZZ009>014-017-252300-
NORTHEAST ARIZONA

CITY           SKY/WX    TMP DP  RH WIND       PRES   REMARKS
WINSLOW        SUNNY     76  11   8 S16G30    30.00F
SAINT JOHNS    SUNNY     76  19  11 W23G32    30.02F
SHOW LOW       SUNNY     68  18  14 SW25G31   30.10F
$$

AZZ023-252300-
GREATER PHOENIX AREA

CITY           SKY/WX    TMP DP  RH WIND       PRES   REMARKS
PHOENIX        MOSUNNY   89  30  12 VRB6      29.84F
BUCKEYE        SUNNY     88  27  11 SW10G16   29.87F
LUKE AFB       SUNNY     87  32  14 SW15G22   29.85F
DEER VALLEY    SUNNY     85  29  13 SW8G17    29.88F
SCOTTSDALE     SUNNY     85  30  13 VRB5      29.89F
MESA-GATEWAY   MOSUNNY   90  27  10 SW17G24   29.88F
CHANDLER       MOSUNNY   90  21   8 S17G29    29.87F
$$

AZZ027-028-252300-
SOUTHWEST MARICOPA COUNTY AND PINAL COUNTY

CITY           SKY/WX    TMP DP  RH WIND       PRES   REMARKS
CASA GRANDE    SUNNY     90  28  11 S20G26    29.88F
GILA BEND      SUNNY     90  25   9 SW15G29   29.85F
$$

AZZ503-504-507>509-252300-
SOUTHEAST ARIZONA

CITY           SKY/WX    TMP DP  RH WIND       PRES   REMARKS
TUCSON         SUNNY     87  19   8 SW12G25   29.95F
DAVIS-MONTHAN  SUNNY     87  20   8 SW15G23   29.93F
RYAN FIELD     SUNNY     90  19   7 S23G30    29.95F
NOGALES        SUNNY     85  18   8 SW25G37   30.02F
SIERRA VISTA   SUNNY     81  10   7 SW21G35   30.06F
DOUGLAS        SUNNY     87  21   9 SW24G33   30.02F
SAFFORD        SUNNY     90  17   7 NW10      29.90F
$$

AZZ020-021-025-026-031-252300-
SOUTHWEST ARIZONA

CITY           SKY/WX    TMP DP  RH WIND       PRES   REMARKS
YUMA           NOT AVBL
$$

CAZ031-033-041-043-047-048-061-252300-
SOUTHERN CALIFORNIA

CITY           SKY/WX    TMP DP  RH WIND       PRES   REMARKS
DOWNTOWN L.A.  CLOUDY    67  48  50 VRB6      30.08S
L.A. AIRPORT   PTSUNNY   64  52  64 SW13      30.09S
SAN DIEGO      MOSUNNY   70  51  51 W16G24    30.11F
BURBANK        CLOUDY    66  44  45 S8        30.07F
ONTARIO        PTSUNNY   68  42  38 W12G22    30.06F
RIVERSIDE      PTSUNNY   70  43  37 W12G25    30.05F
PALM SPRINGS   MOSUNNY   81  37  20 NW26G36   29.91F
EL CENTRO NAS  MOSUNNY   82  36  19 SW23G33   29.93F
IMPERIAL       SUNNY     82  39  21 W18G26    29.90F
BLYTHE         SUNNY     84  29  13 SW17G28   29.87F
NEEDLES        SUNNY     86  20   9 SW16G26   29.85F
$$

NVZ020-UTZ003-252300-
SOUTHERN NEVADA-UTAH

CITY           SKY/WX    TMP DP  RH WIND       PRES   REMARKS
LAS VEGAS      MOSUNNY   79  27  14 NE6       29.84F
SALT LAKE CITY PTSUNNY   66  34  30 CALM      30.00S
$$

NMZ009-TXZ055-252300-
NEW MEXICO-WEST TEXAS

CITY           SKY/WX    TMP DP  RH WIND       PRES   REMARKS
ALBUQUERQUE    MOSUNNY   79  18  10 SW8G17    30.02F
EL PASO        MOSUNNY   91  27  10 W20G26    29.97F
$$


........................KEY........................
SKY/WX - SKY CONDITION/WEATHER
TMP    - TEMPERATURE IN FAHRENHEIT
DP     - DEW POINT IN FAHRENHEIT
RH     - RELATIVE HUMIDITY IN PERCENT
WIND   - DIRECTION AND SPEED IN MILES PER HOUR (MPH)
VRB    - VARIABLE WIND DIRECTION
PRES   - MEAN SEA LEVEL PRESSURE IN INCHES OF MERCURY
         F - FALLING PRESSURE   R - RISING PRESSURE
         S - STEADY PRESSURE
VSB    - VISIBILITY IN MILES
HX     - HEAT INDEX IN FAHRENHEIT
WCI    - WIND CHILL INDEX IN FAHRENHEIT
TC     - TEMPERATURE IN CELSIUS WHICH IS ALSO KNOWN AS
         TEMPERATURE IN CENTIGRADE
AFB    - AIR FORCE BASE
         LUKE AFB IS LUKE AIR FORCE BASE
         DAVIS-MONTHAN IS DAVIS-MONTHAN AIR FORCE BASE
NAS    - NAVAL AIR STATION
         EL CENTRO NAS IS EL CENTRO NAVAL AIR STATION
N/A    - NOT AVAILABLE





USA.gov is the U.S. government's official web portal to all federal, state and local government web resources and services.